Location: Cheyres
(46.8153°N, 6.7877°E)
Time: 22:57:14
(UTC+00:00)

Cosmos 2074 Rocket - Pass Details

Date: 11 May 2021
Orbit: 967 x 986 km, 82.9° (Epoch: 23 June)

Event Time Altitude Azimuth Distance (km) Brightness Sun altitude
Rises 21:09:41 0° 350° (N) 3,706 8.2 -17.9°
Reaches altitude 10° 21:12:12 10° 350° (N) 2,754 7.4 -18.1°
Maximum altitude 21:18:32 82° 263° (W) 1,002 4.0 -18.7°
Enters shadow 21:22:16 26° 179° (S) 1,817 4.9 -19.1°
